Lid_Strength_Index
4 5 5 5 5 5 5 5 5 5 4 4 3 3 3 3 3 4 4 4 3 3
5 5 6 6 6 6 6 5 5 5 5 4 4 4 4 4 4 4 3 3 3 3
5 5 6 5 5 5 5 5 5 5 5 5 5 4 4 4 3 4 3 3 3 2
5 5 5 5 5 5 5 5 6 6 6 6 5 4 4 4 3 4 3 3 3 2
5 5 5 5 5 5 5 5 5 6 6 6 5 4 4 4 4 4 4 3 3 3
7 7 7 7 6 6 5 5 5 5 6 6 5 5 5 4 4 4 4 3 3 3
8 7 7 7 7 6 6 6 6 6 5 5 5 5 5 5 5 4 4 3 2 2
7 7 7 7 7 7 7 7 6 6 6 5 5 5 5 5 5 4 4 3 2 1
8 8 8 8 8 8 8 7 7 6 6 5 5 4 3 4 5 4 4 3 2 1
9 9 9 9 9 9 9 8 8 7 6 6 6 4 3 2 3 4 3 3 2 2
9 9 9 9 8 8 8 7 8 8 7 7 6 4 3 2 2 3 3 2 2 2
8 9 9 10 10 8 7 6 6 6 7 7 5 4 3 4 5 6 6 5 4 4
9 10 10 10 9 8 8 8 7 7 6 5 6 5 5 6 7 8 7 7 7 6
9 9 9 9 9 9 9 9 9 8 8 8 7 7 6 7 9 9 9 8 8 7